Showing default

NETSAT-3, 46505

Orbit data source: Space-Track

NETSAT-3, 46505 is a payload satellite owned by ZfT (DE) in SSO that was launched on Mon, 28 Sep 2020 UTC via a SOYUZ-2-1B launch vehicle from the Plesetsk Missile And Space Complex (PKMTR). Payload-class satellites include a variety of spacecraft equipped with specific instruments for various scientific and technological missions. These include communications satellites like Starlink; space stations such as the ISS; scientific satellites like the Hubble; Earth observation satellites from companies like Planet Labs, Umbra, and HawkEye 360; GPS; miniature CubeSats for education and research; and military/defense satellites.

Loading next visibility...
Identifier
46505, 2020-068V
Orbit
SSO
Country
Flag of DEDE / GER
Related business
Manufacturer
ZfT
Mission
Operational Commercial Technology
Bus & Motor
CUBESAT 3U, Unknown motor
Mass
4 kg wet, 4 kg dry
Launch date (UTC)
2020-09-28 (6 years ago)
Launch vehicle
SOYUZ-2-1B
Launch site
Plesetsk Missile And Space Complex (PKMTR)
Object type
Payload
Rocket body
Debris
Shape & HBR
Box, Unknown HBR
Radar Cross Section
0.035 m², Medium (>0.1 m² and < 1m²)

Expand to show TLE details & history
Last TLE update: 13 hours ago

TLE from 13 hours ago
0 NETSAT-3
1 46505U 20068V   26170.98497625  .00015734  00000-0  36169-3 0  9990
2 46505  97.8656 177.6634 0003804 350.0729  10.0441 15.42761824316110
Epoch: 2026-06-19T23:38Z
TLE epoch observation values (Epoch: 2026-06-19T23:38:21.948Z)
Latitude
-0.00002°
Longitude
-85.13415°
Altitude
438.516 km
Speed
7.65 km/s
True Right ascension
11h 50m 39s
True Declination
0° 00' 00"
Sunlit
Object was in daylight at epoch
Visualization orbit readout
Latitude
Unknown
Longitude
Unknown
Altitude
Unknown
Speed
Unknown
Apparent Right ascension
Unknown
Apparent Declination
Unknown
Sunlit
N/A
Visualization observer readout
Local Sidereal Time
23:13:56
Azimuth
Unknown
Elevation
Unknown
Doppler factor
Unknown
Orbital elements
Apogee altitude
437.51 km
Perigee altitude
432.327 km
Semi-major axis
6,813.055 km
Eccentricity
0.00038
Inclination
97.8656°
RAAN
177.6634°
Arg. of periapsis
350.0729°
True anomaly
10.05171°
Mean anomaly
10.0441°
Eccentric anomaly
10.0479°
Mean motion
3.85949 °/min
Orbital period
93.28 mins
BSTAR
0.00036169
Loading maneuver chart data...
Computing Atmospheric mass density...
Loading historical data...
Loading historical data...
Loading historical data...
Loading historical data...
Loading historical data...
Loading historical data...
Loading historical data...

Documentation

Showing up to 5 results
|